Radiation Dose at Monitoring Post of Fukushima Daini Nuclear Power Station
Date,Time,MP-1(microSv/h),MP-2(microSv/h),MP-3(microSv/h),MP-4(microSv/h),MP-5(microSv/h),MP-6(microSv/h),MP-7(microSv/h),Wind Direction,Wind Velocity(m/s),Rain
2021/11/21,00:00,0.161,0.147,0.232,0.226,0.229,0.126,0.081,north-northwest,0.6,No
2021/11/21,00:10,0.162,0.147,0.231,0.225,0.227,0.125,0.081,north-northwest,0.6,No
2021/11/21,00:20,0.162,0.147,0.232,0.224,0.229,0.126,0.081,-,CALM,No
2021/11/21,00:30,0.162,0.147,0.231,0.226,0.229,0.126,0.080,-,CALM,No
2021/11/21,00:40,0.161,0.146,0.232,0.226,0.229,0.126,0.081,-,CALM,No
2021/11/21,00:50,0.161,0.147,0.232,0.226,0.228,0.126,0.080,-,CALM,No
2021/11/21,01:00,0.162,0.147,0.232,0.226,0.228,0.126,0.081,-,CALM,No
2021/11/21,01:10,0.162,0.146,0.231,0.225,0.228,0.126,0.080,-,CALM,No
2021/11/21,01:20,0.162,0.147,0.231,0.226,0.228,0.126,0.080,-,CALM,No
2021/11/21,01:30,0.162,0.147,0.231,0.226,0.228,0.126,0.081,west,0.8,No
2021/11/21,01:40,0.162,0.147,0.231,0.226,0.229,0.126,0.081,west,0.9,No
2021/11/21,01:50,0.162,0.146,0.231,0.225,0.228,0.125,0.080,west-northwest,0.9,No
2021/11/21,02:00,0.161,0.147,0.231,0.225,0.229,0.125,0.081,west-northwest,0.7,No
2021/11/21,02:10,0.162,0.147,0.230,0.225,0.230,0.125,0.081,west-northwest,0.7,No
2021/11/21,02:20,0.162,0.147,0.231,0.225,0.229,0.126,0.081,-,CALM,No
2021/11/21,02:30,0.161,0.147,0.231,0.224,0.229,0.125,0.081,-,CALM,No
2021/11/21,02:40,0.162,0.147,0.231,0.227,0.229,0.126,0.081,west,1.0,No
2021/11/21,02:50,0.161,0.148,0.233,0.225,0.229,0.126,0.081,west,1.1,No
2021/11/21,03:00,0.162,0.146,0.231,0.225,0.228,0.125,0.082,west-southwest,1.2,No
2021/11/21,03:10,0.162,0.146,0.230,0.225,0.228,0.126,0.081,west-southwest,0.9,No
2021/11/21,03:20,0.160,0.147,0.231,0.225,0.230,0.125,0.080,southwest,0.9,No
2021/11/21,03:30,0.161,0.147,0.231,0.226,0.228,0.125,0.081,southwest,1.2,No
2021/11/21,03:40,0.162,0.146,0.231,0.225,0.229,0.126,0.080,southwest,1.7,No
2021/11/21,03:50,0.161,0.147,0.232,0.225,0.229,0.126,0.080,southwest,1.8,No
2021/11/21,04:00,0.161,0.148,0.231,0.224,0.229,0.126,0.080,southwest,1.2,No
2021/11/21,04:10,0.162,0.147,0.231,0.225,0.228,0.125,0.081,south-southwest,1.2,No
2021/11/21,04:20,0.161,0.146,0.231,0.225,0.229,0.126,0.081,south-southwest,1.2,No
2021/11/21,04:30,0.160,0.148,0.230,0.224,0.229,0.126,0.081,southwest,1.6,No
2021/11/21,04:40,0.161,0.147,0.231,0.225,0.228,0.126,0.080,southwest,1.7,No
2021/11/21,04:50,0.162,0.147,0.231,0.225,0.229,0.126,0.081,south-southwest,1.4,No
2021/11/21,05:00,0.160,0.148,0.230,0.226,0.229,0.126,0.081,south-southwest,1.2,No
2021/11/21,05:10,0.161,0.148,0.231,0.225,0.229,0.126,0.081,-,CALM,No
2021/11/21,05:20,0.161,0.147,0.231,0.225,0.230,0.126,0.081,north,0.8,No
2021/11/21,05:30,0.163,0.148,0.231,0.226,0.229,0.126,0.081,north,1.1,No
2021/11/21,05:40,0.162,0.147,0.231,0.225,0.229,0.126,0.081,north,1.3,No
2021/11/21,05:50,0.162,0.148,0.232,0.226,0.230,0.127,0.081,north,3.2,No
2021/11/21,06:00,0.162,0.146,0.233,0.225,0.230,0.127,0.081,north-northwest,4.3,No
2021/11/21,06:10,0.162,0.147,0.232,0.226,0.229,0.125,0.082,north-northwest,4.5,No
2021/11/21,06:20,0.163,0.147,0.232,0.226,0.230,0.126,0.081,north-northwest,3.9,No
2021/11/21,06:30,0.161,0.147,0.231,0.226,0.230,0.126,0.081,north,3.7,No
2021/11/21,06:40,0.162,0.147,0.231,0.225,0.229,0.126,0.082,north,2.9,No
2021/11/21,06:50,0.161,0.148,0.231,0.227,0.229,0.126,0.082,north-northwest,1.2,No
2021/11/21,07:00,0.162,0.147,0.232,0.225,0.229,0.126,0.081,-,CALM,No
2021/11/21,07:10,0.162,0.147,0.231,0.226,0.229,0.126,0.081,north,1.6,No
2021/11/21,07:20,0.162,0.147,0.231,0.226,0.228,0.126,0.080,northwest,2.0,No
2021/11/21,07:30,0.162,0.147,0.231,0.226,0.230,0.127,0.081,north-northwest,3.3,No
2021/11/21,07:40,0.162,0.147,0.232,0.224,0.229,0.126,0.080,north-northwest,4.0,No
2021/11/21,07:50,0.161,0.148,0.232,0.225,0.229,0.127,0.081,north-northwest,3.9,No
2021/11/21,08:00,0.163,0.148,0.230,0.227,0.230,0.126,0.080,north-northwest,3.7,No
2021/11/21,08:10,0.161,0.147,0.232,0.225,0.228,0.126,0.081,north-northwest,2.8,No
2021/11/21,08:20,0.161,0.146,0.231,0.225,0.228,0.126,0.081,north-northwest,3.6,No
2021/11/21,08:30,0.162,0.147,0.230,0.226,0.229,0.125,0.081,north-northwest,3.0,No
2021/11/21,08:40,0.161,0.146,0.232,0.224,0.229,0.125,0.081,north-northwest,2.6,No
2021/11/21,08:50,0.161,0.147,0.232,0.226,0.229,0.125,0.080,north,2.7,No
2021/11/21,09:00,0.163,0.148,0.231,0.224,0.228,0.126,0.081,north-northwest,2.4,No
2021/11/21,09:10,0.160,0.146,0.231,0.225,0.229,0.126,0.081,north-northwest,2.2,No
2021/11/21,09:20,0.161,0.147,0.230,0.224,0.230,0.126,0.080,north-northwest,3.5,No
2021/11/21,09:30,0.161,0.147,0.231,0.225,0.227,0.126,0.081,north-northwest,1.9,No
2021/11/21,09:40,0.161,0.147,0.231,0.224,0.231,0.126,0.082,north,2.1,No
2021/11/21,09:50,0.162,0.147,0.231,0.225,0.229,0.125,0.081,north,2.2,No
2021/11/21,10:00,0.160,0.147,0.231,0.224,0.230,0.126,0.081,north,2.5,No
2021/11/21,10:10,0.162,0.147,0.230,0.226,0.227,0.125,0.081,north-northeast,3.3,No
2021/11/21,10:20,0.160,0.146,0.231,0.226,0.228,0.125,0.081,north-northeast,3.9,No
2021/11/21,10:30,0.162,0.147,0.230,0.226,0.228,0.126,0.082,north-northeast,3.4,No
2021/11/21,10:40,0.161,0.147,0.231,0.226,0.229,0.126,0.080,northeast,3.1,No
2021/11/21,10:50,0.162,0.148,0.231,0.226,0.230,0.126,0.080,north-northeast,3.2,No
2021/11/21,11:00,0.161,0.147,0.230,0.225,0.228,0.127,0.081,north-northeast,4.1,No
2021/11/21,11:10,0.162,0.148,0.232,0.226,0.230,0.126,0.080,north-northeast,3.7,No
2021/11/21,11:20,0.161,0.146,0.229,0.226,0.229,0.126,0.081,northeast,4.6,No
2021/11/21,11:30,0.161,0.147,0.231,0.226,0.230,0.127,0.080,northeast,3.7,No
2021/11/21,11:40,0.161,0.147,0.230,0.226,0.230,0.126,0.081,north-northeast,3.1,No
2021/11/21,11:50,0.161,0.147,0.232,0.226,0.228,0.127,0.081,north-northeast,3.8,No
2021/11/21,12:00,0.161,0.148,0.230,0.226,0.230,0.125,0.081,northeast,3.9,No
2021/11/21,12:10,0.162,0.146,0.232,0.225,0.231,0.127,0.081,north-northeast,3.3,No
2021/11/21,12:20,0.162,0.148,0.232,0.227,0.231,0.127,0.081,northeast,3.0,No
2021/11/21,12:30,0.160,0.147,0.231,0.226,0.229,0.126,0.081,northeast,3.6,No
2021/11/21,12:40,0.163,0.148,0.230,0.226,0.230,0.125,0.081,north-northeast,3.2,No
2021/11/21,12:50,0.161,0.147,0.231,0.225,0.229,0.127,0.081,northeast,2.7,No
2021/11/21,13:00,0.161,0.147,0.231,0.226,0.230,0.126,0.081,north-northeast,2.9,No
2021/11/21,13:10,0.160,0.147,0.230,0.225,0.228,0.127,0.080,north-northeast,3.8,No
2021/11/21,13:20,0.162,0.147,0.231,0.228,0.231,0.126,0.081,northeast,2.4,No
2021/11/21,13:30,0.161,0.146,0.232,0.225,0.228,0.126,0.080,north-northeast,3.1,No
2021/11/21,13:40,0.163,0.147,0.232,0.226,0.232,0.125,0.081,northeast,2.7,No
2021/11/21,13:50,0.161,0.147,0.229,0.226,0.229,0.126,0.080,north-northeast,2.3,No
2021/11/21,14:00,0.163,0.148,0.231,0.226,0.231,0.126,0.081,northeast,2.0,No
2021/11/21,14:10,0.162,0.147,0.233,0.227,0.229,0.127,0.081,north-northeast,2.1,No
2021/11/21,14:20,0.161,0.148,0.231,0.227,0.230,0.126,0.081,north-northeast,2.8,No
2021/11/21,14:30,0.162,0.147,0.231,0.226,0.229,0.126,0.081,north-northeast,0.6,No
2021/11/21,14:40,0.161,0.148,0.229,0.226,0.231,0.126,0.080,northeast,1.8,No
2021/11/21,14:50,0.162,0.148,0.230,0.227,0.231,0.126,0.081,northeast,1.9,No
2021/11/21,15:00,0.161,0.147,0.231,0.227,0.229,0.126,0.081,north-northeast,1.9,No
2021/11/21,15:10,0.161,0.147,0.231,0.226,0.231,0.126,0.081,north,1.6,No
2021/11/21,15:20,0.162,0.147,0.231,0.227,0.228,0.126,0.081,north,1.2,No
2021/11/21,15:30,0.161,0.148,0.230,0.225,0.231,0.125,0.080,north,3.7,No
2021/11/21,15:40,0.162,0.147,0.231,0.229,0.229,0.127,0.081,north-northeast,1.9,No
2021/11/21,15:50,0.161,0.147,0.233,0.226,0.231,0.126,0.081,north-northeast,0.7,No
2021/11/21,16:00,0.162,0.148,0.231,0.227,0.230,0.126,0.081,-,CALM,No
2021/11/21,16:10,0.161,0.147,0.230,0.226,0.229,0.126,0.081,north-northeast,0.7,No
2021/11/21,16:20,0.162,0.149,0.230,0.225,0.228,0.126,0.081,northwest,0.7,No
2021/11/21,16:30,0.162,0.147,0.231,0.227,0.229,0.126,0.081,north,1.3,No
2021/11/21,16:40,0.161,0.148,0.232,0.226,0.230,0.125,0.080,-,CALM,No
2021/11/21,16:50,0.162,0.148,0.231,0.228,0.229,0.126,0.081,-,CALM,No
2021/11/21,17:00,0.161,0.147,0.230,0.225,0.229,0.126,0.081,north,0.6,No
2021/11/21,17:10,0.162,0.147,0.231,0.226,0.229,0.126,0.080,north-northwest,0.6,No
2021/11/21,17:20,0.162,0.147,0.231,0.227,0.230,0.126,0.081,-,CALM,No
2021/11/21,17:30,0.161,0.148,0.232,0.225,0.228,0.126,0.081,north-northwest,1.1,No
2021/11/21,17:40,0.162,0.149,0.232,0.228,0.230,0.126,0.081,north,1.1,No
2021/11/21,17:50,0.161,0.147,0.231,0.226,0.232,0.125,0.081,northwest,1.1,No
2021/11/21,18:00,0.162,0.148,0.231,0.226,0.228,0.128,0.080,northwest,1.4,No
2021/11/21,18:10,0.162,0.147,0.232,0.227,0.230,0.125,0.081,northwest,1.6,No
2021/11/21,18:20,0.161,0.147,0.232,0.225,0.229,0.126,0.080,west-northwest,1.6,No
2021/11/21,18:30,0.162,0.147,0.232,0.228,0.229,0.126,0.080,west-northwest,1.9,No
2021/11/21,18:40,0.161,0.147,0.231,0.227,0.230,0.126,0.081,west-northwest,1.8,No
2021/11/21,18:50,0.162,0.147,0.232,0.226,0.228,0.127,0.081,northwest,1.0,No
2021/11/21,19:00,0.161,0.147,0.233,0.227,0.231,0.126,0.081,north-northwest,0.8,No
2021/11/21,19:10,0.162,0.149,0.232,0.226,0.228,0.126,0.082,west-northwest,2.0,No
2021/11/21,19:20,0.162,0.147,0.232,0.227,0.230,0.126,0.081,west-northwest,1.5,No
2021/11/21,19:30,0.162,0.148,0.232,0.227,0.230,0.127,0.080,west-northwest,1.1,No
2021/11/21,19:40,0.162,0.147,0.232,0.227,0.229,0.126,0.081,northwest,1.5,No
2021/11/21,19:50,0.162,0.148,0.231,0.225,0.231,0.126,0.080,northwest,2.2,No
2021/11/21,20:00,0.162,0.149,0.232,0.226,0.230,0.127,0.080,northwest,1.9,No
2021/11/21,20:10,0.162,0.147,0.231,0.226,0.229,0.126,0.081,north-northwest,1.2,No
2021/11/21,20:20,0.162,0.147,0.232,0.227,0.230,0.126,0.081,northwest,0.8,No
2021/11/21,20:30,0.161,0.148,0.233,0.228,0.228,0.127,0.080,-,CALM,No
2021/11/21,20:40,0.161,0.147,0.231,0.225,0.229,0.126,0.081,-,CALM,No
2021/11/21,20:50,0.162,0.147,0.231,0.225,0.230,0.126,0.081,-,CALM,No
2021/11/21,21:00,0.162,0.147,0.232,0.226,0.230,0.126,0.081,-,CALM,No
2021/11/21,21:10,0.162,0.148,0.231,0.226,0.230,0.127,0.081,-,CALM,Yes
2021/11/21,21:20,0.162,0.147,0.232,0.225,0.228,0.126,0.081,south-southwest,0.7,Yes
2021/11/21,21:30,0.163,0.148,0.233,0.227,0.231,0.126,0.082,south,0.7,Yes
2021/11/21,21:40,0.162,0.148,0.232,0.226,0.230,0.126,0.081,south-southwest,1.0,No
2021/11/21,21:50,0.162,0.147,0.233,0.227,0.230,0.126,0.081,-,CALM,No
2021/11/21,22:00,0.162,0.149,0.232,0.228,0.230,0.126,0.082,south-southwest,0.9,No
2021/11/21,22:10,0.161,0.147,0.232,0.227,0.229,0.127,0.082,southwest,1.0,Yes
2021/11/21,22:20,0.164,0.150,0.234,0.230,0.232,0.128,0.082,southwest,1.5,Yes
2021/11/21,22:30,0.164,0.151,0.235,0.230,0.232,0.130,0.085,southwest,1.4,Yes
2021/11/21,22:40,0.167,0.152,0.235,0.230,0.235,0.132,0.086,southwest,1.1,Yes
2021/11/21,22:50,0.168,0.153,0.237,0.231,0.235,0.132,0.087,south-southwest,1.1,Yes
2021/11/21,23:00,0.167,0.153,0.237,0.231,0.235,0.132,0.087,south-southwest,1.1,Yes
2021/11/21,23:10,0.168,0.154,0.238,0.232,0.235,0.133,0.089,south,0.9,Yes
2021/11/21,23:20,0.169,0.155,0.240,0.233,0.235,0.134,0.089,south,0.7,Yes
2021/11/21,23:30,0.168,0.154,0.237,0.232,0.236,0.133,0.088,southwest,0.9,Yes
2021/11/21,23:40,0.167,0.153,0.235,0.230,0.233,0.133,0.087,southwest,1.0,Yes
2021/11/21,23:50,0.166,0.153,0.236,0.230,0.233,0.131,0.086,south,1.0,Yes
